Regional Weather Roundup
Issued by NWS

Home | Current Version | Previous Version | Graphics & Text | Print | Product List | Glossary On
Versions: 1 2 3 4 5 6 7 8 9 10 11 12 13 14 15 16 17 18 19 20 21 22 23 24 25 26 27 28 29 30 31 32 33 34 35 36 37 38 39 40 41 42 43 44 45 46 47 48 49 50
067
ASUS43 KMPX 230410
RWRMN
WEATHER ROUNDUP FOR MINNESOTA
NATIONAL WEATHER SERVICE TWIN CITIES/CHANHASSEN MN
1100 PM CDT SUN OCT 22 2017


NOTE: "FAIR" INDICATES FEW OR NO CLOUDS BELOW 12,000 FEET WITH NO
SIGNIFICANT WEATHER AND/OR OBSTRUCTIONS TO VISIBILITY. N/A MEANS
CURRENT SKY AND/OR WEATHER CONDITIONS ARE NOT AVAILABLE.

MNZ060>063-068>070-230500-
   Twin Cities Metro

CITY           SKY/WX    TMP DP  RH WIND       PRES   REMARKS
TWIN CITIES    CLOUDY    56  33  42 S10       29.90F
ST PAUL        PTCLDY    51  38  60 SE9       29.91F
CRYSTAL        PTCLDY    55  31  39 S10       29.87F
BLAINE         CLOUDY    55  34  44 S10       29.88F
LAKEVILLE      CLOUDY    52  36  54 S6        29.91F
EDEN PRAIRIE   CLOUDY    56  33  42 S9        29.88F
SOUTH ST PAUL  CLOUDY    52  35  52 SE6       29.90F
LAKE ELMO      FAIR      52  36  54 S9        29.91F
$$
MNZ001>005-007-008-013>017-022>024-027-028-230500-
   Northwest Minnesota

CITY           SKY/WX    TMP DP  RH WIND       PRES   REMARKS
BEMIDJI        CLOUDY    54  32  43 S8        29.69F
HALLOCK        PTCLDY    46  41  81 S7        29.56F
ROSEAU         CLEAR     54  43  66 S8        29.60F
WARROAD        PTCLDY    54  39  58 S9        29.61F
THIEF RVR FALL MOCLDY    53  36  52 S13       29.63F
CROOKSTON      CLEAR     54  32  43 S12       29.62F
FOSSTON        CLOUDY    54  30  40 S14       29.67F
DETROIT LAKES  PTCLDY    59  32  36 SW13      29.71F
MOORHEAD       CLOUDY    57  32  38 S13       29.67F
PARK RAPIDS    MOCLDY    54  34  46 S12       29.71F
MAHNOMEN       MOCLDY    53  33  45 S12       29.67F
$$
MNZ006-009>011-018-025>026-230500-
   North Central Minnesota

CITY           SKY/WX    TMP DP  RH WIND       PRES   REMARKS
BAUDETTE       MOCLDY    54  35  48 S10       29.63F
FLAG ISLAND    CLOUDY    54  39  58 S10       29.58F
INTL FALLS     CLOUDY    55  31  39 VRB6      29.68F
WASKISH        CLOUDY    55  34  44 S7        29.67F
BIG FORK       MOCLDY    55  32  41 S10G16    29.72F
LONGVILLE      CLOUDY    55  34  44 S10       29.75F
GRAND RAPIDS   CLOUDY    53  34  48 S14       29.79F
CRANE LAKE     CLOUDY    52  28  40 S5        29.78S
ORR            CLOUDY    52  28  40 SE9       29.73F
COOK           MOCLDY    52  30  43 S9        29.78F
WALKER         CLOUDY    55  32  41 S9        29.72F
$$
MNZ012-019>021-037-230500-
   Northeast Minnesota

CITY           SKY/WX    TMP DP  RH WIND       PRES   REMARKS
DULUTH         MOCLDY    52  32  46 S14       29.84F
ELY            CLOUDY    52  28  40 S10G16    29.80F
HIBBING        CLOUDY    50  30  46 VRB5      29.80F
EVELETH        PTCLDY    53  16  23 S10G16    29.81F
DULUTH HARBOR  CLOUDY    52  39  62 CALM      29.85F
TWO HARBORS    CLOUDY    46  39  76 CALM      29.84S
SILVER BAY     CLOUDY    43  39  87 CALM      29.84S
G MARAIS ARPRT CLOUDY    46  34  61 S7        29.86S
$$
MNZ029>031-032-039>041-046>048-054>057-064-230500-
   West Central Minnesota

CITY           SKY/WX    TMP DP  RH WIND       PRES   REMARKS
FERGUS FALLS   CLOUDY    57  36  44 S15       29.73F
WHEATON        CLOUDY    57  34  41 S12       29.76F
MORRIS         LGT RAIN  57  37  47 S13       29.77F
ALEXANDRIA     MOCLDY    54  37  52 S9        29.80F
ELBOW LAKE     DRIZZLE   54  39  56 S10       29.75F
WADENA         MOCLDY    54  36  50 S9        29.74F
GLENWOOD       CLOUDY    52  36  54 S7        29.81F
APPLETON       CLOUDY    59  30  33 S8        29.78F
BENSON         MOCLDY    54  36  50 S8        29.81F
ORTONVILLE     CLOUDY    54  36  50 N5        29.77F
MADISON        PTCLDY    57  36  44 S6        29.78F
WILLMAR        FAIR      55  36  47 S5        29.84F
$$
MNZ033>034-036-042>043-049>051-058-059-230500-
   Central Minnesota

CITY           SKY/WX    TMP DP  RH WIND       PRES   REMARKS
ST CLOUD       CLOUDY    55  35  47 S14G21    29.84F
SAUK CENTRE    CLOUDY    52  37  57 S7        29.81F
PAYNESVILLE    MOCLDY    55  35  46 S10       29.83F
AITKIN         CLOUDY    54  34  47 S12       29.79F
PINE RIVER     CLOUDY    54  34  47 S8        29.80F
BRAINERD       CLOUDY    56  33  42 S13       29.79F
STAPLES        CLOUDY    52  34  50 S8        29.77F
LONG PRAIRIE   CLOUDY    52  34  50 SE9       29.80F
LITTLE FALLS   CLOUDY    54  27  35 SE6       29.82F
LITCHFIELD     MOCLDY    55  37  50 SE3       29.85F
BUFFALO        MOCLDY    55  32  40 S9        29.87F
MAPLE LAKE     CLOUDY    55  36  48 S7        29.86F
HUTCHINSON     PTCLDY    54  37  52 S8        29.87F
$$
MNZ037-044-045-052-053-230500-
   East Central Minnesota

CITY           SKY/WX    TMP DP  RH WIND       PRES   REMARKS
PRINCETON      PTCLDY    57  34  41 S10       29.85F
MORA           CLOUDY    54  34  47 S9        29.86F
CAMBRIDGE      CLOUDY    55  37  50 S8        29.86F
RUSH CITY      PTCLDY    53  35  51 S8        29.87F
MOOSE LAKE     CLOUDY    52  32  46 S7        29.82F
HINCKLEY       FAIR      54  34  47 S9        29.85F
CLOQUET        CLOUDY    52  28  40 S7        29.83F
MCGREGOR       CLOUDY    54  32  43 S8        29.82S
$$
MNZ071>073-080-081-089-090-097-098-230500-
   Southwest Minnesota

CITY           SKY/WX    TMP DP  RH WIND       PRES   REMARKS
MONTEVIDEO     CLOUDY    55  36  47 S8        29.79F
GRANITE FALLS  CLOUDY    54  38  54 S9        29.83F
CANBY          MOCLDY    62  29  28 SW12G17   29.79F
MARSHALL       MOCLDY    56  34  43 S13       29.82F
REDWOOD FALLS  CLOUDY    54  34  46 S13       29.84F
OLIVIA         CLOUDY    54  36  50 S9        29.84F
PIPESTONE      MOCLDY    54  28  37 SW9       29.85F
WORTHINGTON    CLOUDY    50  34  54 S12       29.90S
JACKSON        CLEAR     50  32  50 S12       29.91S
TRACY          CLOUDY    55  36  47 S10       29.85F
SLAYTON        CLOUDY    55  32  42 S9        29.88F
$$
MNZ065>067-074>077-082>085-091>093-230500-
   South Central Minnesota

CITY           SKY/WX    TMP DP  RH WIND       PRES   REMARKS
MANKATO        PTCLDY    50  34  54 S8        29.91F
NEW ULM          N/A     50  34  53 S10       29.88F
ST JAMES       CLEAR     52  36  54 S10       29.90F
FAIRMONT       CLEAR     48  35  60 S10       29.92S
GLENCOE        MOCLDY    54  34  47 S7        29.87F
FARIBAULT      PTCLDY    54  34  47 S7        29.92F
OWATONNA       CLOUDY    52  36  54 S14       29.93F
WASECA         CLOUDY    52  34  50 S8        29.93F
$$
MNZ078>079-086>088-094>096-230500-
   Southeast Minnesota

CITY           SKY/WX    TMP DP  RH WIND       PRES   REMARKS
ROCHESTER      CLEAR     47  41  80 S12       29.97F
RED WING       PTCLDY    48  36  61 E8        29.93F
STANTON        PTCLDY    52  34  51 S8        29.91F
DODGE CENTER   CLEAR     45  37  76 S9        29.95F
WINONA         CLEAR     48  43  81 SW3       29.99F
AUSTIN         CLEAR     46  39  76 S7        29.96F
PRESTON        CLEAR     46  40  82 S7        30.00F
$$
ABBREVIATIONS USED IN REMARKS
   TC - TEMPERATURES IN CELSIUS
  WCI - WIND CHILL INDEX
   HX - HEAT INDEX
  VSB - VISIBILITY
$$




USA.gov is the U.S. government's official web portal to all federal, state and local government web resources and services.